Weather History for Grand Marais Airport, MN

Change the Weather History Date:

Tuesday, June 25, 2013

  Actual Average Record
Temperature  
Mean Temperature 70 °F -  
Max Temperature 80 °F 68 °F 82 °F (2001)
Min Temperature 57 °F 48 °F 33 °F (2004)
Cooling Degree Days 4    
Growing Degree Days 20 (Base 50)    
Moisture  
Dew Point 53 °F    
Average Humidity 56    
Maximum Humidity 82    
Minimum Humidity 34    
Precipitation  
Precipitation 0.00 in - - ()
Sea Level Pressure  
Sea Level Pressure 29.85 in    
Wind  
Wind Speed 5 mph (SW)    
Max Wind Speed 12 mph    
Max Gust Speed 17 mph    
Visibility 10 miles    
Events      
Averages and records for this station are not official NWS values.
T = Trace of Precipitation, MM = Missing Value Source: NWS Daily Summary

Daily Weather History Graph

Daily Weather History Graph

Search for Another Location

Airport:

Trip Planner

Search our weather history database for the weather conditions in past years. The results will help you decide how hot, cold, wet, or windy it might be!

Date:

Astronomy

Jun. 25, 2013 Rise Set
Actual Time 5:03 AM CDT 9:04 PM CDT
Civil Twilight 4:22 AM CDT 9:45 PM CDT
Nautical Twilight 3:25 AM CDT 10:42 PM CDT
Astronomical Twilight 1:51 AM CDT 12:16 AM CDT
Moon 10:33 PM CDT (6/25) 7:56 AM CDT (6/25)
Length of Visible Light 17h 22m
Length of Day
16h 00m
Waning Gibbous, 92% of the Moon is Illuminated
Jun 25
Waning Gibbous
Jun 29
Last Quarter
Jul 8
New
Jul 15
First Quarter
Jul 22
Full

Hourly Weather History & Observations

Time (CDT) Temp. Heat Index Dew Point Humidity Pressure Visibility Wind Dir Wind Speed Gust Speed Precip Events Conditions
12:14 AM 62.6 °F - 51.8 °F 68% 29.84 in 10.0 mi West 5.8 mph - N/A   Clear
12:33 AM 62.6 °F - 51.8 °F 68% 29.84 in 10.0 mi West 5.8 mph - N/A   Clear
12:54 AM 62.6 °F - 51.8 °F 68% 29.85 in 10.0 mi West 5.8 mph - N/A   Clear
1:13 AM 62.6 °F - 51.8 °F 68% 29.85 in 10.0 mi West 4.6 mph - N/A   Clear
1:33 AM 62.6 °F - 51.8 °F 68% 29.85 in 10.0 mi West 4.6 mph - N/A   Clear
1:54 AM 62.6 °F - 51.8 °F 68% 29.85 in 10.0 mi West 4.6 mph - N/A   Clear
2:13 AM 62.6 °F - 51.8 °F 68% 29.85 in 10.0 mi West 3.5 mph - N/A   Clear
2:34 AM 60.8 °F - 51.8 °F 72% 29.85 in 10.0 mi SW 3.5 mph - N/A   Clear
2:54 AM 60.8 °F - 51.8 °F 72% 29.85 in 10.0 mi West 4.6 mph - N/A   Clear
3:13 AM 62.6 °F - 51.8 °F 68% 29.85 in 10.0 mi West 5.8 mph - N/A   Clear
3:33 AM 62.6 °F - 53.6 °F 72% 29.85 in 10.0 mi West 4.6 mph - N/A   Clear
3:54 AM 62.6 °F - 51.8 °F 68% 29.85 in 10.0 mi West 4.6 mph - N/A   Clear
4:14 AM 62.6 °F - 51.8 °F 68% 29.85 in 10.0 mi West 5.8 mph - N/A   Clear
4:33 AM 62.6 °F - 51.8 °F 68% 29.85 in 10.0 mi West 4.6 mph - N/A   Clear
4:54 AM 62.6 °F - 51.8 °F 68% 29.86 in 10.0 mi West 5.8 mph - N/A   Clear
5:14 AM 60.8 °F - 51.8 °F 72% 29.86 in 10.0 mi WNW 4.6 mph - N/A   Clear
5:33 AM 62.6 °F - 51.8 °F 68% 29.86 in 10.0 mi West 4.6 mph - N/A   Clear
5:53 AM 64.4 °F - 51.8 °F 64% 29.86 in 10.0 mi West 6.9 mph - N/A   Clear
6:14 AM 66.2 °F - 51.8 °F 60% 29.86 in 10.0 mi West 5.8 mph - N/A   Clear
6:33 AM 68.0 °F - 53.6 °F 60% 29.86 in 10.0 mi West 5.8 mph - N/A   Clear
6:54 AM 68.0 °F - 53.6 °F 60% 29.85 in 10.0 mi WNW 4.6 mph - N/A   Clear
7:14 AM 68.0 °F - 53.6 °F 60% 29.86 in 10.0 mi WNW 4.6 mph - N/A   Clear
7:33 AM 69.8 °F - 55.4 °F 60% 29.86 in 10.0 mi West 4.6 mph - N/A   Clear
7:54 AM 71.6 °F - 55.4 °F 57% 29.86 in 10.0 mi WNW 6.9 mph - N/A   Clear
8:14 AM 73.4 °F - 55.4 °F 53% 29.86 in 10.0 mi West 5.8 mph - N/A   Clear
8:33 AM 73.4 °F - 57.2 °F 57% 29.86 in 10.0 mi WNW 3.5 mph - N/A   Clear
8:53 AM 75.2 °F - 55.4 °F 50% 29.86 in 10.0 mi WNW 5.8 mph - N/A   Clear
9:13 AM 75.2 °F - 57.2 °F 53% 29.86 in 10.0 mi WNW 5.8 mph - N/A   Clear
9:34 AM 75.2 °F - 55.4 °F 50% 29.87 in 10.0 mi WNW 3.5 mph - N/A   Clear
9:53 AM 77.0 °F - 55.4 °F 47% 29.87 in 10.0 mi NW 4.6 mph - N/A   Clear
10:14 AM 78.8 °F - 55.4 °F 44% 29.86 in 10.0 mi Calm Calm - N/A   Clear
10:33 AM 78.8 °F - 55.4 °F 44% 29.86 in 10.0 mi West 4.6 mph - N/A   Clear
10:54 AM 78.8 °F - 55.4 °F 44% 29.86 in 10.0 mi SSW 6.9 mph - N/A   Clear
11:13 AM 78.8 °F - 55.4 °F 44% 29.86 in 10.0 mi SSW 4.6 mph - N/A   Clear
11:34 AM 78.8 °F - 53.6 °F 42% 29.86 in 10.0 mi SSE 3.5 mph - N/A   Clear
11:53 AM 78.8 °F - 57.2 °F 47% 29.86 in 10.0 mi South 6.9 mph - N/A   Scattered Clouds
12:14 PM 80.6 °F 80.5 °F 55.4 °F 42% 29.86 in 10.0 mi SSE 8.1 mph - N/A   Clear
12:33 PM 80.6 °F 80.3 °F 53.6 °F 39% 29.86 in 10.0 mi South 9.2 mph - N/A   Clear
12:54 PM 78.8 °F - 53.6 °F 42% 29.86 in 10.0 mi South 11.5 mph 17.3 mph N/A   Clear
1:13 PM 78.8 °F - 53.6 °F 42% 29.86 in 10.0 mi South 9.2 mph 17.3 mph N/A   Clear
1:33 PM 78.8 °F - 51.8 °F 39% 29.86 in 10.0 mi South 11.5 mph 16.1 mph N/A   Clear
1:54 PM 80.6 °F 80.3 °F 53.6 °F 39% 29.86 in 10.0 mi South 9.2 mph - N/A   Clear
2:13 PM 80.6 °F - 51.8 °F 37% 29.87 in 10.0 mi South 10.4 mph - N/A   Clear
2:34 PM 78.8 °F - 53.6 °F 42% 29.86 in 10.0 mi South 6.9 mph - N/A   Clear
2:53 PM 78.8 °F - 51.8 °F 39% 29.86 in 10.0 mi South 9.2 mph - N/A   Clear
3:13 PM 78.8 °F - 51.8 °F 39% 29.86 in 10.0 mi South 6.9 mph - N/A   Clear
3:34 PM 78.8 °F - 51.8 °F 39% 29.86 in 10.0 mi South 8.1 mph - N/A   Clear
3:53 PM 80.6 °F - 51.8 °F 37% 29.86 in 10.0 mi South 9.2 mph - N/A   Clear
4:14 PM 78.8 °F - 51.8 °F 39% 29.86 in 10.0 mi South 4.6 mph - N/A   Clear
4:33 PM 80.6 °F 80.3 °F 53.6 °F 39% 29.85 in 10.0 mi South 6.9 mph - N/A   Clear
4:54 PM 78.8 °F - 51.8 °F 39% 29.85 in 10.0 mi South 5.8 mph - N/A   Clear
5:13 PM 78.8 °F - 50.0 °F 36% 29.85 in 10.0 mi SSW 6.9 mph - N/A   Clear
5:33 PM 78.8 °F - 48.2 °F 34% 29.84 in 10.0 mi SSW 4.6 mph - N/A   Clear
5:54 PM 78.8 °F - 51.8 °F 39% 29.83 in 10.0 mi South 4.6 mph - N/A   Clear
6:14 PM 78.8 °F - 48.2 °F 34% 29.83 in 10.0 mi South 6.9 mph - N/A   Clear
6:34 PM 77.0 °F - 48.2 °F 36% 29.83 in 10.0 mi South 5.8 mph - N/A   Clear
6:53 PM 77.0 °F - 50.0 °F 39% 29.83 in 10.0 mi South 3.5 mph - N/A   Clear
7:13 PM 75.2 °F - 51.8 °F 44% 29.84 in 10.0 mi South 5.8 mph - N/A   Clear
7:33 PM 73.4 °F - 53.6 °F 50% 29.84 in 10.0 mi Calm Calm - N/A   Clear
7:53 PM 73.4 °F - 53.6 °F 50% 29.83 in 10.0 mi Calm Calm - N/A   Clear
8:14 PM 69.8 °F - 55.4 °F 60% 29.83 in 10.0 mi Calm Calm - N/A   Clear
8:33 PM 68.0 °F - 55.4 °F 64% 29.83 in 10.0 mi Calm Calm - N/A   Clear
8:54 PM 66.2 °F - 55.4 °F 68% 29.83 in 10.0 mi Calm Calm - N/A   Clear
9:14 PM 64.4 °F - 55.4 °F 73% 29.82 in 10.0 mi Calm Calm - N/A   Clear
9:33 PM 62.6 °F - 55.4 °F 77% 29.82 in 10.0 mi NNE 3.5 mph - N/A   Clear
9:53 PM 62.6 °F - 55.4 °F 77% 29.81 in 10.0 mi NNE 4.6 mph - N/A   Clear
10:13 PM 60.8 °F - 55.4 °F 82% 29.81 in 10.0 mi North 3.5 mph - N/A   Clear
10:34 PM 60.8 °F - 55.4 °F 82% 29.81 in 10.0 mi Calm Calm - N/A   Clear
10:54 PM 60.8 °F - 53.6 °F 77% 29.81 in 10.0 mi Calm Calm - N/A   Clear
11:13 PM 59.0 °F - 53.6 °F 82% 29.81 in 10.0 mi SSW 3.5 mph - N/A   Clear
11:34 PM 60.8 °F - 53.6 °F 77% 29.82 in 10.0 mi SSW 3.5 mph - N/A   Clear
11:54 PM 57.2 °F - 51.8 °F 82% 29.82 in 10.0 mi Calm Calm - N/A   Clear